Location: Bergnerzell
(49.1816°N, 10.2565°E)
Time: 04:05:54
(UTC+00:00)

Cosmos 1455 - Pass Details

Date: 23 May 2024
Orbit: 445 x 461 km, 82.5° (Epoch: 13 June)

Event Time Altitude Azimuth Distance (km) Brightness Sun altitude
Rises 00:26:23 0° 354° (N) 2,461 6.9 -18.4°
Reaches altitude 10° 00:28:30 10° 0° (N) 1,585 5.8 -18.3°
Maximum altitude 00:31:52 50° 77° (ENE) 583 2.6 -18.2°
Enters shadow 00:33:12 31° 135° (SE) 821 2.9 -18.1°
